Weather History for West Palm Beach, FL

Change the Weather History Date:

Monday, January 23, 2012

  Actual Average Record
Temperature  
Mean Temperature 74 °F 66 °F  
Max Temperature 79 °F 75 °F 87 °F (1973)
Min Temperature 68 °F 57 °F 32 °F (1985)
Degree Days  
Heating Degree Days 0 3  
Month to date heating degree days 76 69  
Since 1 July heating degree days 87 140  
Cooling Degree Days 9 3  
Month to date cooling degree days 42 76  
Year to date cooling degree days 42 76  
Growing Degree Days 24 (Base 50)    
Moisture  
Dew Point 64 °F    
Average Humidity 74    
Maximum Humidity 90    
Minimum Humidity 58    
Precipitation  
Precipitation 0.05 in 0.10 in 1.76 in (1908)
Month to date precipitation 0.05 2.39  
Year to date precipitation 0.05 2.39  
Snow  
Snow 0.00 in - - ()
Month to date snowfall 0.0  
Since 1 July snowfall 0.0  
Snow Depth 0.00 in    
Sea Level Pressure  
Sea Level Pressure 30.11 in    
Wind  
Wind Speed 9 mph (SE)    
Max Wind Speed 22 mph    
Max Gust Speed 26 mph    
Visibility 10 miles    
Events Rain    
T = Trace of Precipitation, MM = Missing Value Source: NWS Daily Summary

Daily Weather History Graph

Daily Weather History Graph

Search for Another Location

Airport:

Trip Planner

Search our weather history database for the weather conditions in past years. The results will help you decide how hot, cold, wet, or windy it might be!

Date:

Astronomy

Jan. 23, 2012 Rise Set
Actual Time 7:09 AM EST 5:55 PM EST
Civil Twilight 6:44 AM EST 6:20 PM EST
Nautical Twilight 6:16 AM EST 6:48 PM EST
Astronomical Twilight 5:48 AM EST 7:15 PM EST
Moon 7:09 AM EST (1/23) 6:33 PM EST (1/23)
Length of Visible Light 11h 35m
Length of Day
10h 46m
New Moon, 0% of the Moon is Illuminated
Jan 23
New Moon
Jan 30
First Quarter
Feb 7
Full
Feb 14
Last Quarter
Feb 21
New

Hourly Weather History & Observations

Time (EST) Temp. Dew Point Humidity Pressure Visibility Wind Dir Wind Speed Gust Speed Precip Events Conditions
12:53 AM 71.1 °F 62.1 °F 73% 30.11 in 10.0 mi East 8.1 mph - N/A   Scattered Clouds
1:53 AM 71.1 °F 63.0 °F 75% 30.11 in 10.0 mi East 8.1 mph - N/A   Scattered Clouds
2:53 AM 72.0 °F 64.0 °F 76% 30.11 in 10.0 mi East 9.2 mph - N/A   Mostly Cloudy
3:53 AM 70.0 °F 64.0 °F 81% 30.11 in 10.0 mi SSE 6.9 mph - N/A   Mostly Cloudy
4:14 AM 69.8 °F 64.4 °F 83% 30.11 in 10.0 mi South 10.4 mph - 0.00 in Rain Light Rain
4:45 AM 69.8 °F 64.4 °F 83% 30.11 in 10.0 mi Calm Calm - 0.05 in   Overcast
4:53 AM 69.1 °F 66.0 °F 90% 30.11 in 10.0 mi Calm Calm - 0.05 in   Overcast
5:53 AM 70.0 °F 64.9 °F 84% 30.10 in 10.0 mi East 5.8 mph - N/A   Mostly Cloudy
6:53 AM 69.1 °F 64.9 °F 87% 30.10 in 10.0 mi ESE 8.1 mph - N/A   Mostly Cloudy
7:53 AM 72.0 °F 64.0 °F 76% 30.11 in 10.0 mi ESE 9.2 mph - N/A   Mostly Cloudy
8:53 AM 73.9 °F 64.9 °F 73% 30.11 in 10.0 mi SE 15.0 mph - N/A   Scattered Clouds
9:53 AM 75.9 °F 64.0 °F 67% 30.13 in 10.0 mi ESE 17.3 mph - N/A   Mostly Cloudy
10:53 AM 78.1 °F 62.1 °F 58% 30.14 in 10.0 mi ESE 19.6 mph - N/A   Mostly Cloudy
11:53 AM 78.1 °F 62.1 °F 58% 30.11 in 10.0 mi SSE 17.3 mph 25.3 mph N/A   Mostly Cloudy
12:53 PM 78.1 °F 62.1 °F 58% 30.09 in 10.0 mi SSE 15.0 mph 20.7 mph N/A   Mostly Cloudy
1:53 PM 78.1 °F 62.1 °F 58% 30.09 in 10.0 mi SE 11.5 mph - N/A   Mostly Cloudy
2:53 PM 77.0 °F 63.0 °F 62% 30.08 in 10.0 mi SSE 9.2 mph - N/A   Overcast
3:53 PM 75.9 °F 63.0 °F 64% 30.09 in 10.0 mi SE 9.2 mph - N/A   Mostly Cloudy
4:53 PM 75.9 °F 63.0 °F 64% 30.09 in 10.0 mi SE 8.1 mph - N/A   Mostly Cloudy
5:53 PM 73.9 °F 63.0 °F 68% 30.09 in 10.0 mi SE 8.1 mph - N/A   Mostly Cloudy
6:53 PM 73.9 °F 66.0 °F 76% 30.09 in 10.0 mi East 5.8 mph - 0.00 in Rain Light Rain
7:53 PM 72.0 °F 64.9 °F 78% 30.10 in 10.0 mi SSE 9.2 mph - 0.00 in   Scattered Clouds
8:53 PM 71.1 °F 62.1 °F 73% 30.11 in 10.0 mi SE 6.9 mph - N/A   Scattered Clouds
9:53 PM 72.0 °F 63.0 °F 73% 30.11 in 10.0 mi ESE 4.6 mph - N/A   Scattered Clouds
10:53 PM 71.1 °F 64.9 °F 81% 30.12 in 10.0 mi SE 3.5 mph - N/A   Scattered Clouds
11:53 PM 71.1 °F 64.0 °F 78% 30.11 in 10.0 mi SE 3.5 mph - N/A   Scattered Clouds